Date String (YYYY-MM-DD hh:mm:ss) UTC,Instrument flags,Ambient pressure (hPa),Sample flow (lpm),Bypass flow (lpm),Sample temperature (°C),Ambient temperature (°C),ASC tube jacket temperature (°C),LED temperature (°C),Box temperature (°C),Sample RH (%),Span deviation,Mass concentration (μg/m³),Mass concentration (μg/m³),Mass concentration (μg/m³)
DateTimeUTC,F1_M11,P_M11,Q1_M11,Q2_M11,T1_M11,T2_M11,T3_M11,T4_M11,T5_M11,U1_M11,ZSPAN_M11,X2_M11,X0_M11,X1_M11
2022-01-12 07:00:00,,0830.7,4.98,0.00,23.5,22.6,00.0,32.6,25.2,08.7,0000.0,0000.19,0003.76,0000.02
2022-01-12 07:01:00,,0830.7,5.02,0.00,23.5,22.6,00.0,32.5,25.2,08.8,0000.0,0000.18,0003.69,0000.02
2022-01-12 07:02:00,,0830.7,4.99,0.00,23.5,22.6,00.0,32.5,25.1,08.8,0000.0,0000.17,0003.66,0000.02
2022-01-12 07:03:00,,0830.7,5.01,0.00,23.5,22.6,00.0,32.5,25.2,08.9,0000.0,0000.20,0003.30,0000.02
2022-01-12 07:04:00,,0830.7,5.00,0.00,23.5,22.6,00.0,32.5,25.1,08.9,0000.0,0000.20,0002.02,0000.02
2022-01-12 07:05:00,,0830.7,5.00,0.00,23.4,22.6,00.0,32.5,25.1,08.8,0000.0,0000.18,0001.29,0000.01
2022-01-12 07:06:00,,0830.7,4.99,0.00,23.4,22.6,00.0,32.5,25.1,08.8,0000.0,0000.17,0001.13,0000.01
2022-01-12 07:07:00,,0830.6,5.01,0.00,23.4,22.6,00.0,32.5,25.1,08.8,0000.0,0000.16,0001.02,0000.01
2022-01-12 07:08:00,,0830.5,5.00,0.00,23.4,22.5,00.0,32.5,25.1,08.9,0000.0,0000.15,0001.26,0000.00
2022-01-12 07:09:00,,0830.6,5.00,0.00,23.4,22.5,00.0,32.5,25.1,08.9,0000.0,0000.12,0001.37,0000.01
2022-01-12 07:10:00,,0830.6,5.00,0.00,23.4,22.5,00.0,32.5,25.1,08.7,0000.0,0000.12,0001.48,0000.01
2022-01-12 07:11:00,,0830.5,4.99,0.00,23.4,22.5,00.0,32.5,25.1,08.6,0000.0,0000.14,0001.52,0000.01
2022-01-12 07:12:00,,0830.6,4.99,0.00,23.4,22.6,00.0,32.5,25.1,08.2,0000.0,0000.16,0001.61,0000.01
2022-01-12 07:13:00,,0830.6,5.01,0.00,23.4,22.6,00.0,32.5,25.1,08.4,0000.0,0000.17,0002.23,0000.01
2022-01-12 07:14:00,,0830.6,5.01,0.00,23.4,22.6,00.0,32.5,25.1,08.3,0000.0,0000.12,0002.71,0000.01
2022-01-12 07:15:00,,0830.5,4.98,0.00,23.4,22.6,00.0,32.5,25.1,08.4,0000.0,0000.13,0003.97,0000.01
2022-01-12 07:16:00,,0830.6,5.00,0.00,23.4,22.5,00.0,32.5,25.1,08.4,0000.0,0000.12,0003.95,0000.01
2022-01-12 07:17:00,,0830.4,5.01,0.00,23.4,22.5,00.0,32.4,25.1,08.5,0000.0,0000.13,0005.15,0000.01
2022-01-12 07:18:00,,0830.3,4.99,0.00,23.4,22.5,00.0,32.4,25.1,08.8,0000.0,0000.12,0006.01,0000.01
2022-01-12 07:19:00,,0830.4,5.01,0.00,23.3,22.5,00.0,32.4,25.1,08.7,0000.0,0000.11,0006.71,0000.01
2022-01-12 07:20:00,,0830.4,5.00,0.00,23.3,22.5,00.0,32.4,25.0,08.7,0000.0,0000.10,0007.00,0000.01
2022-01-12 07:21:00,,0830.4,5.02,0.00,23.3,22.4,00.0,32.4,25.0,08.7,0000.0,0000.10,0006.91,0000.00
2022-01-12 07:22:00,,0830.3,4.98,0.00,23.3,22.4,00.0,32.4,25.0,08.9,0000.0,0000.08,0006.87,0000.00
2022-01-12 07:23:00,,0830.3,5.00,0.00,23.3,22.5,00.0,32.4,25.0,09.0,0000.0,0000.07,0006.80,0000.01
2022-01-12 07:24:00,,0830.3,5.02,0.00,23.3,22.5,00.0,32.4,25.0,08.8,0000.0,0000.08,0006.22,0000.01
2022-01-12 07:25:00,,0830.4,4.99,0.00,23.3,22.5,00.0,32.4,25.0,08.8,0000.0,0000.07,0005.55,0000.01
2022-01-12 07:26:00,,0830.3,5.01,0.00,23.3,22.5,00.0,32.4,25.0,08.7,0000.0,0000.06,0004.42,0000.01
2022-01-12 07:27:00,,0830.2,4.99,0.00,23.3,22.5,00.0,32.4,25.0,08.9,0000.0,0000.06,0004.39,0000.01
2022-01-12 07:28:00,,0830.2,4.99,0.00,23.3,22.5,00.0,32.4,25.0,09.1,0000.0,0000.05,0002.66,0000.01
2022-01-12 07:29:00,,0830.2,5.00,0.00,23.3,22.5,00.0,32.4,25.1,09.0,0000.0,0000.05,0001.85,0000.01
2022-01-12 07:30:00,,0830.3,5.01,0.00,23.3,22.5,00.0,32.4,25.1,08.9,0000.0,0000.08,0000.55,0000.01
2022-01-12 07:31:00,,0830.3,4.99,0.00,23.3,22.5,00.0,32.4,25.0,08.7,0000.0,0000.09,0000.27,0000.01
2022-01-12 07:32:00,,0830.2,5.00,0.00,23.3,22.6,00.0,32.4,25.1,08.6,0000.0,0000.11,0000.30,0000.01
2022-01-12 07:33:00,,0830.2,5.01,0.00,23.3,22.6,00.0,32.4,25.1,08.5,0000.0,0000.13,0000.37,0000.01
2022-01-12 07:34:00,,0830.2,4.99,0.00,23.4,22.6,00.0,32.4,25.1,08.4,0000.0,0000.12,0000.77,0000.01
2022-01-12 07:35:00,,0830.1,5.00,0.00,23.4,22.6,00.0,32.4,25.1,08.6,0000.0,0000.13,0001.68,0000.01
2022-01-12 07:36:00,,0830.1,5.00,0.00,23.4,22.6,00.0,32.4,25.1,08.9,0000.0,0000.15,0001.95,0000.01
2022-01-12 07:37:00,,0830.1,5.02,0.00,23.4,22.6,00.0,32.4,25.1,08.8,0000.0,0000.14,0002.86,0000.01
2022-01-12 07:38:00,,0830.1,4.99,0.00,23.4,22.6,00.0,32.4,25.1,08.7,0000.0,0000.13,0002.92,0000.01
2022-01-12 07:39:00,,0830.2,5.01,0.00,23.4,22.6,00.0,32.4,25.1,08.6,0000.0,0000.13,0002.92,0000.01
2022-01-12 07:40:00,,0830.1,5.00,0.00,23.4,22.6,00.0,32.4,25.1,08.8,0000.0,0000.14,0003.94,0000.01
2022-01-12 07:41:00,,0830.1,5.00,0.00,23.4,22.6,00.0,32.4,25.1,08.7,0000.0,0000.12,0004.25,0000.01
2022-01-12 07:42:00,,0830.2,5.01,0.00,23.4,22.6,00.0,32.4,25.1,08.5,0000.0,0000.12,0004.25,0000.01
2022-01-12 07:43:00,,0830.1,4.98,0.00,23.4,22.6,00.0,32.4,25.1,08.7,0000.0,0000.11,0004.25,0000.01
2022-01-12 07:44:00,,0830.2,5.01,0.00,23.4,22.6,00.0,32.4,25.1,08.8,0000.0,0000.10,0004.34,0000.01
2022-01-12 07:45:00,,0830.2,5.00,0.00,23.4,22.6,00.0,32.4,25.1,08.8,0000.0,0000.10,0003.99,0000.01
2022-01-12 07:46:00,,0830.3,5.00,0.00,23.4,22.6,00.0,32.4,25.1,08.7,0000.0,0000.08,0003.14,0000.01
2022-01-12 07:47:00,,0830.2,5.01,0.00,23.4,22.6,00.0,32.4,25.1,08.6,0000.0,0000.06,0002.81,0000.01
2022-01-12 07:48:00,,0830.1,5.00,0.00,23.4,22.6,00.0,32.4,25.1,08.6,0000.0,0000.11,0001.98,0000.01
2022-01-12 07:49:00,,0830.2,5.00,0.00,23.4,22.6,00.0,32.4,25.1,08.8,0000.0,0000.12,0001.99,0000.01
2022-01-12 07:50:00,,0830.1,5.00,0.00,23.4,22.6,00.0,32.4,25.1,08.4,0000.0,0000.13,0002.11,0000.01
2022-01-12 07:51:00,,0830.1,5.00,0.00,23.4,22.6,00.0,32.4,25.1,08.5,0000.0,0000.14,0001.54,0000.01
2022-01-12 07:52:00,,0830.1,5.00,0.00,23.4,22.6,00.0,32.4,25.1,08.8,0000.0,0000.12,0001.91,0000.01
2022-01-12 07:53:00,,0830.2,5.01,0.00,23.4,22.6,00.0,32.4,25.1,08.8,0000.0,0000.13,0002.18,0000.01
2022-01-12 07:54:00,,0830.1,4.99,0.00,23.4,22.6,00.0,32.4,25.1,08.7,0000.0,0000.12,0003.32,0000.01
2022-01-12 07:55:00,,0830.2,5.01,0.00,23.4,22.6,00.0,32.4,25.1,08.6,0000.0,0000.13,0003.82,0000.01
2022-01-12 07:56:00,,0830.2,5.00,0.00,23.4,22.6,00.0,32.4,25.1,08.6,0000.0,0000.14,0003.90,0000.01
2022-01-12 07:57:00,,0830.1,4.99,0.00,23.4,22.5,00.0,32.4,25.1,08.7,0000.0,0000.14,0003.90,0000.01
2022-01-12 07:58:00,,0830.1,5.01,0.00,23.3,22.5,00.0,32.4,25.0,08.9,0000.0,0000.14,0003.91,0000.01
2022-01-12 07:59:00,,0830.0,4.98,0.00,23.3,22.4,00.0,32.4,25.0,09.0,0000.0,0000.10,0004.28,0000.01
